Location: Aufkirchen
(47.9603°N, 11.3653°E)
Time: 12:21:04
(UTC+01:00)

deb Explorer IX - Pass Details

Date: 04 December 2020
Orbit: 536 x 1104 km, 38.8° (Epoch: 19 January)

Event Time Altitude Azimuth Distance (km) Brightness Sun altitude
Rises 19:05:24 0° 266° (W) 3,505 ? -26.3°
Reaches altitude 10° 19:08:54 10° 249° (WSW) 2,441 ? -26.9°
Maximum altitude 19:12:38 18° 208° (SSW) 1,812 ? -27.6°
Enters shadow 19:14:45 14° 179° (S) 1,934 ? -27.9°
